TimeEDT,TemperatureF,Dew PointF,Humidity,Sea Level PressureIn,VisibilityMPH,Wind Direction,Wind SpeedMPH,Gust SpeedMPH,PrecipitationIn,Events,Conditions,WindDirDegrees,DateUTC
12:53 AM,73.9,71.1,91,30.01,9.0,WSW,6.9,-,N/A,,Mostly Cloudy,240,2013-08-04 04:53:00
1:53 AM,73.9,71.1,91,30.01,8.0,SW,8.1,-,N/A,,Mostly Cloudy,220,2013-08-04 05:53:00
2:53 AM,73.0,71.1,93,29.99,6.0,SW,8.1,-,N/A,,Mostly Cloudy,220,2013-08-04 06:53:00
3:45 AM,73.4,71.6,94,30.03,7.0,SW,6.9,-,N/A,,Overcast,220,2013-08-04 07:45:00
3:53 AM,73.0,71.1,93,29.99,6.0,SSW,8.1,-,N/A,,Overcast,210,2013-08-04 07:53:00
4:22 AM,71.6,69.8,94,30.04,7.0,SW,5.8,-,N/A,,Mostly Cloudy,220,2013-08-04 08:22:00
4:53 AM,72.0,70.0,93,30.01,7.0,SW,6.9,-,N/A,,Mostly Cloudy,230,2013-08-04 08:53:00
5:53 AM,72.0,70.0,93,30.01,8.0,SSW,6.9,-,N/A,,Mostly Cloudy,210,2013-08-04 09:53:00
6:53 AM,72.0,70.0,93,30.01,7.0,SW,4.6,-,0.00,,Mostly Cloudy,220,2013-08-04 10:53:00
7:53 AM,73.0,71.1,93,30.04,5.0,Calm,Calm,-,N/A,,Mostly Cloudy,0,2013-08-04 11:53:00
8:39 AM,73.4,69.8,88,30.08,10.0,WSW,3.5,-,N/A,,Mostly Cloudy,250,2013-08-04 12:39:00
8:53 AM,73.9,70.0,87,30.05,10.0,Calm,Calm,-,N/A,,Mostly Cloudy,0,2013-08-04 12:53:00
9:39 AM,75.2,71.6,89,30.09,10.0,Calm,Calm,-,N/A,,Mostly Cloudy,0,2013-08-04 13:39:00
9:53 AM,77.0,69.1,76,30.05,10.0,Calm,Calm,-,N/A,,Mostly Cloudy,0,2013-08-04 13:53:00
10:53 AM,80.1,68.0,67,30.05,10.0,North,6.9,-,N/A,,Mostly Cloudy,10,2013-08-04 14:53:00
11:53 AM,81.0,64.9,58,30.06,10.0,North,10.4,-,N/A,,Mostly Cloudy,360,2013-08-04 15:53:00
12:53 PM,81.0,64.0,56,30.05,10.0,North,9.2,-,N/A,,Mostly Cloudy,360,2013-08-04 16:53:00
1:53 PM,82.9,63.0,51,30.04,10.0,North,11.5,-,N/A,,Mostly Cloudy,350,2013-08-04 17:53:00
2:53 PM,84.0,61.0,46,30.03,10.0,NNE,9.2,-,N/A,,Mostly Cloudy,20,2013-08-04 18:53:00
3:53 PM,84.0,59.0,43,30.01,10.0,North,6.9,-,N/A,,Mostly Cloudy,10,2013-08-04 19:53:00
4:53 PM,86.0,57.9,38,30.00,10.0,NNE,9.2,-,N/A,,Mostly Cloudy,20,2013-08-04 20:53:00
5:53 PM,84.0,55.9,38,30.00,10.0,North,9.2,-,N/A,,Mostly Cloudy,350,2013-08-04 21:53:00
6:53 PM,81.0,59.0,47,30.00,10.0,North,5.8,-,N/A,,Overcast,360,2013-08-04 22:53:00
7:53 PM,79.0,61.0,54,30.00,10.0,North,8.1,-,N/A,,Overcast,360,2013-08-04 23:53:00
8:53 PM,75.9,61.0,60,30.02,10.0,North,6.9,-,N/A,,Overcast,360,2013-08-05 00:53:00
9:53 PM,73.9,60.1,62,30.04,10.0,North,8.1,-,N/A,,Overcast,350,2013-08-05 01:53:00
10:53 PM,72.0,57.9,61,30.05,10.0,NNE,3.5,-,N/A,,Overcast,30,2013-08-05 02:53:00
11:53 PM,72.0,59.0,64,30.06,10.0,Calm,Calm,-,N/A,,Overcast,0,2013-08-05 03:53:00